[[{"header":{"parameterUnit":"m.s-1","parameterCategory":2,"la1":30.2992,"la2":30.254,"lo1":-89.0895,"lo2":-89.0443,"dy":0.0025,"dx":0.0025,"nx":19,"ny":19,"refTime":"2026-03-08T03:00:00:Z","depth":"0","parameterNumber":2,"parameterNumberName":"U-component_of_CURRENTS"},"data":[0,0,0,0.2456,0.2458,0.2522,0.2522,0.2542,0.2542,0,0,0,0,0,0,0,0,0,0,0,0.2416,0.2417,0.2456,0.2458,0.2522,0.2522,0.2542,0.2542,0,0,0,0,0,0,0,0,0,0,0,0.2416,0.2417,0.2417,0.2459,0.2522,0.2522,0.2542,0.2504,0,0,0,0,0,0,0,0,0,0,0.2448,0.2417,0.2417,0.2417,0.2459,0.2522,0.2522,0.2503,0.2507,0.2501,0,0.2515,0,0.2545,0.2544,0.2544,0,0,0,0.2439,0.2414,0.2449,0.2417,0.246,0.2522,0.2488,0.2505,0.2509,0.2506,0.2516,0.2518,0.2546,0.2544,0.2544,0.2665,0.2666,0,0,0.2435,0.2409,0.2446,0.2451,0.2481,0.2486,0.249,0.2508,0.2502,0.2516,0.2519,0.2546,0.2544,0.2545,0.2664,0.2666,0,0,0,0.2438,0.2406,0.2441,0.2449,0.2475,0.2488,0.2493,0.2501,0.2518,0.252,0.2546,0.2544,0.2545,0.2663,0.2665,0.2684,0,0,0,0.2435,0.2411,0.244,0.2422,0.2476,0.2496,0.2485,0.2516,0.252,0.2546,0.2544,0.2545,0.2662,0.2664,0.2681,0.2688,0,0,0,0.2413,0.2408,0.2421,0.2421,0.2462,0.2497,0.2514,0.2517,0.2537,0.2544,0.2545,0.2661,0.2664,0.2678,0.2684,0.2716,0,0,0,0.2376,0.2383,0.242,0.244,0.2462,0.2529,0.2514,0.2546,0.2554,0.2545,0.2662,0.2665,0.2677,0.2681,0.2713,0.2628,0.2634,0,0,0.2365,0.2381,0.2397,0.2433,0.2495,0.2518,0.2587,0.2586,0.2598,0.2644,0.2648,0.2682,0.2683,0.2715,0.2784,0.2784,0,0,0,0.2382,0.2392,0.2418,0.2464,0.2524,0.259,0.2611,0.2642,0.2695,0.2623,0.2732,0.2733,0.2752,0.2697,0.2699,0.2695,0.2677,0.2677,0.2677,0.2297,0.2362,0.2399,0.2486,0.2542,0.264,0.2693,0.2749,0.2739,0.2788,0.2786,0.2875,0.282,0.2819,0.2818,0.283,0.283,0.283,0.283,0.228,0.2299,0.2398,0.2458,0.256,0.2632,0.2774,0.2801,0.2888,0.287,0.2887,0.2767,0.2821,0.282,0.2832,0.2832,0.2832,0.2831,0.2831,0.2214,0.2235,0.2293,0.2398,0.2502,0.2634,0.2739,0.2837,0.291,0.294,0.2878,0.2876,0.2841,0.2944,0.2944,0.2945,0.2945,0.2945,0.2945,0.211,0.2178,0.2215,0.2338,0.2399,0.2533,0.2712,0.2794,0.2887,0.2908,0.2907,0.2883,0.291,0.2865,0.2948,0.2948,0.2947,0.2947,0.2947,0.203,0.206,0.2113,0.2166,0.2314,0.2363,0.2564,0.2691,0.2793,0.2822,0.2864,0.2893,0.2876,0.2874,0.2831,0.29,0.29,0.29,0.29,0.1948,0.1976,0.2014,0.2071,0.2172,0.2281,0.2291,0.2458,0.2679,0.2758,0.2847,0.2798,0.28,0.2777,0.2778,0.2732,0.2775,0.2775,0.2775,0.1895,0.1919,0.1908,0.1982,0.2088,0.2154,0.2093,0.2179,0.2545,0.2775,0.2867,0.2872,0.2806,0.2809,0.2775,0.2775,0.2701,0,0]},{"header":{"parameterUnit":"m.s-1","parameterCategory":2,"la1":30.2992,"la2":30.254,"lo1":-89.0895,"lo2":-89.0443,"dy":0.0025,"dx":0.0025,"nx":19,"ny":19,"refTime":"2026-03-08T03:00:00:Z","depth":"0","parameterNumber":3,"parameterNumberName":"V-component_of_CURRENTS"},"data":[0,0,0,0.0172,0.0171,0.0137,0.0136,0.0065,0.0064,0,0,0,0,0,0,0,0,0,0,0,0.0182,0.0182,0.0172,0.0171,0.0137,0.0136,0.0065,0.0064,0,0,0,0,0,0,0,0,0,0,0,0.0182,0.0182,0.0182,0.0171,0.0137,0.0136,0.0065,0.0096,0,0,0,0,0,0,0,0,0,0,0.0132,0.0155,0.0182,0.0182,0.0171,0.0137,0.0136,0.0097,0.0094,0.0076,0,0.0077,0,0.0073,0.006,0.006,0,0,0,0.0161,0.0158,0.0145,0.0182,0.0171,0.0137,0.0149,0.0096,0.0091,0.0071,0.0076,0.0073,0.0072,0.006,0.0059,0.0068,0.0068,0,0,0.0163,0.0177,0.0148,0.0143,0.0169,0.0151,0.0148,0.0093,0.0094,0.0076,0.0072,0.0071,0.0059,0.0059,0.0067,0.0068,0,0,0,0.0175,0.0178,0.0166,0.0145,0.0143,0.015,0.0147,0.0096,0.0092,0.0071,0.007,0.0059,0.0058,0.0067,0.0067,0.0156,0,0,0,0.0176,0.0186,0.0168,0.0175,0.0145,0.0125,0.0152,0.0095,0.0089,0.007,0.0059,0.0057,0.0066,0.0067,0.0152,0.0214,0,0,0,0.0183,0.0187,0.0184,0.0176,0.0165,0.0126,0.0118,0.0094,0.0089,0.006,0.0057,0.0065,0.0067,0.0149,0.0207,0.027,0,0,0,0.0195,0.0212,0.0185,0.0206,0.0166,0.0177,0.0118,0.0114,0.0097,0.0058,0.0066,0.0067,0.0148,0.0203,0.0266,0.0322,0.0347,0,0,0.0226,0.0216,0.023,0.0205,0.0238,0.018,0.0215,0.0161,0.0111,0.0078,0.0079,0.0154,0.0207,0.0269,0.0404,0.0426,0,0,0,0.0247,0.0261,0.0265,0.0276,0.0266,0.0279,0.0221,0.0205,0.0179,0.0108,0.0158,0.0189,0.0225,0.025,0.0268,0.0169,0.0074,0.0074,0.0074,0.0307,0.0306,0.0345,0.0346,0.0352,0.0342,0.0349,0.0316,0.0241,0.025,0.0263,0.0377,0.0404,0.0418,0.0315,0.0253,0.0253,0.0253,0.0253,0.0377,0.0406,0.0411,0.0445,0.0452,0.0475,0.0468,0.0434,0.0437,0.0356,0.0387,0.0345,0.0444,0.0326,0.0259,0.0258,0.0258,0.0257,0.0257,0.0425,0.0442,0.0456,0.0512,0.0567,0.057,0.0667,0.0613,0.0543,0.0566,0.0573,0.0571,0.0467,0.057,0.057,0.0571,0.0571,0.0572,0.0572,0.0464,0.0485,0.054,0.0589,0.0644,0.0733,0.0774,0.0799,0.0765,0.0697,0.0697,0.0504,0.0474,0.046,0.0581,0.0579,0.0578,0.0577,0.0577,0.0526,0.0529,0.0621,0.0678,0.0818,0.0959,0.0985,0.1042,0.1019,0.1018,0.0725,0.0761,0.0743,0.0727,0.0719,0.09,0.09,0.09,0.09,0.0564,0.0573,0.07,0.0816,0.0967,0.1071,0.1256,0.1268,0.1057,0.0918,0.08,0.0715,0.0706,0.0677,0.0663,0.065,0.0809,0.0809,0.0808,0.0611,0.0646,0.0746,0.0857,0.1031,0.1208,0.1377,0.1437,0.109,0.079,0.0655,0.0659,0.0511,0.0505,0.0436,0.0424,0.0393,0,0]}],[{"header":{"parameterUnit":"m.s-1","parameterCategory":2,"la1":30.2992,"la2":30.254,"lo1":-89.0895,"lo2":-89.0443,"dy":0.0025,"dx":0.0025,"nx":19,"ny":19,"refTime":"2026-03-08T03:00:00:Z","depth":"2","parameterNumber":2,"parameterNumberName":"U-component_of_CURRENTS"},"data":[0,0,0,0.2013,0.2014,0.208,0.208,0.2163,0.2163,0,0,0,0,0,0,0,0,0,0,0,0.2,0.2,0.2013,0.2014,0.208,0.208,0.2163,0.2163,0,0,0,0,0,0,0,0,0,0,0,0.1999,0.2,0.2001,0.2014,0.208,0.208,0.2162,0.2114,0,0,0,0,0,0,0,0,0,0,0.2051,0.2022,0.2,0.2001,0.2015,0.208,0.208,0.2112,0.2117,0.2131,0,0.2149,0,0.2153,0.2169,0.2169,0,0,0,0.2018,0.2017,0.2049,0.2001,0.2015,0.208,0.2051,0.2115,0.2121,0.2138,0.215,0.2153,0.2154,0.2169,0.2169,0.2277,0.2278,0,0,0.2014,0.1997,0.2045,0.2053,0.2043,0.2049,0.2053,0.2118,0.2121,0.2151,0.2155,0.2156,0.217,0.217,0.2276,0.2277,0,0,0,0.2001,0.1994,0.2025,0.205,0.2059,0.2051,0.2056,0.2118,0.2132,0.2156,0.2157,0.217,0.2171,0.2276,0.2277,0.2322,0,0,0,0.1999,0.1987,0.2023,0.2011,0.2058,0.2085,0.2053,0.2128,0.2135,0.2156,0.217,0.2172,0.2275,0.2276,0.232,0.2327,0,0,0,0.1995,0.1985,0.2,0.2011,0.2038,0.2084,0.2102,0.213,0.2135,0.2169,0.2172,0.2275,0.2276,0.2317,0.2323,0.236,0,0,0,0.1966,0.1982,0.2,0.202,0.2038,0.2096,0.2101,0.2144,0.2175,0.217,0.2275,0.2277,0.2316,0.2321,0.2357,0.2282,0.2286,0,0,0.1969,0.1982,0.1996,0.2013,0.2062,0.2086,0.2148,0.2189,0.2202,0.2252,0.2255,0.232,0.2323,0.2359,0.2364,0.2366,0,0,0,0.1985,0.1997,0.2017,0.2048,0.2094,0.2159,0.2192,0.2224,0.229,0.2226,0.2337,0.2337,0.2358,0.2308,0.2311,0.2283,0.2283,0.2283,0.2283,0.1956,0.1991,0.2021,0.2078,0.2129,0.221,0.2266,0.232,0.2323,0.2368,0.2387,0.2461,0.241,0.241,0.2408,0.2409,0.2409,0.2409,0.2409,0.1953,0.1964,0.2031,0.2076,0.2163,0.2229,0.2346,0.2378,0.2463,0.2448,0.2467,0.2374,0.2415,0.2413,0.2412,0.2412,0.2411,0.2411,0.2411,0.1919,0.1929,0.197,0.2041,0.2139,0.2246,0.2345,0.2435,0.2494,0.2533,0.2481,0.2478,0.2475,0.2551,0.2551,0.2552,0.2552,0.2552,0.2552,0.1854,0.1898,0.1918,0.2007,0.2061,0.2175,0.2345,0.2412,0.2496,0.2519,0.2519,0.2509,0.2504,0.2484,0.2555,0.2555,0.2554,0.2554,0.2554,0.1798,0.1816,0.1839,0.1879,0.199,0.2024,0.2215,0.2335,0.2434,0.2451,0.2511,0.2511,0.2486,0.2483,0.2462,0.2524,0.2524,0.2524,0.2524,0.1746,0.1758,0.1764,0.1793,0.1855,0.1953,0.1965,0.2086,0.2264,0.2323,0.2331,0.227,0.2276,0.2235,0.2237,0.221,0.2206,0.2206,0.2205,0.1706,0.1716,0.169,0.1718,0.1778,0.1826,0.1775,0.1775,0.1961,0.219,0.2246,0.2508,0.2439,0.2441,0.2393,0.2391,0.2353,0,0]},{"header":{"parameterUnit":"m.s-1","parameterCategory":2,"la1":30.2992,"la2":30.254,"lo1":-89.0895,"lo2":-89.0443,"dy":0.0025,"dx":0.0025,"nx":19,"ny":19,"refTime":"2026-03-08T03:00:00:Z","depth":"2","parameterNumber":3,"parameterNumberName":"V-component_of_CURRENTS"},"data":[0,0,0,-0.0077,-0.0077,-0.0112,-0.0112,-0.0141,-0.0141,0,0,0,0,0,0,0,0,0,0,0,-0.006,-0.006,-0.0077,-0.0077,-0.0112,-0.0112,-0.0141,-0.0141,0,0,0,0,0,0,0,0,0,0,0,-0.006,-0.006,-0.006,-0.0078,-0.0112,-0.0112,-0.0141,-0.0119,0,0,0,0,0,0,0,0,0,0,-0.0088,-0.0067,-0.006,-0.006,-0.0078,-0.0112,-0.0112,-0.0119,-0.0121,-0.0121,0,-0.0121,0,-0.0133,-0.0143,-0.0143,0,0,0,-0.008,-0.0065,-0.0081,-0.006,-0.0078,-0.0112,-0.0097,-0.012,-0.0122,-0.0124,-0.0122,-0.0123,-0.0134,-0.0143,-0.0143,-0.0117,-0.0116,0,0,-0.0078,-0.0061,-0.008,-0.0083,-0.0081,-0.0096,-0.0098,-0.0122,-0.0117,-0.0122,-0.0124,-0.0134,-0.0143,-0.0143,-0.0117,-0.0117,0,0,0,-0.0071,-0.0059,-0.0075,-0.0081,-0.0089,-0.0097,-0.0099,-0.0116,-0.0123,-0.0125,-0.0134,-0.0143,-0.0144,-0.0118,-0.0117,-0.0032,0,0,0,-0.007,-0.0055,-0.0074,-0.0063,-0.0089,-0.0103,-0.0093,-0.0121,-0.0124,-0.0134,-0.0143,-0.0144,-0.0118,-0.0117,-0.0035,0.0016,0,0,0,-0.0059,-0.0054,-0.0058,-0.0063,-0.0078,-0.0104,-0.0112,-0.0122,-0.013,-0.0143,-0.0144,-0.0118,-0.0117,-0.0038,0.001,0.0056,0,0,0,-0.0042,-0.0022,-0.0057,-0.0033,-0.0078,-0.0064,-0.0112,-0.0111,-0.0117,-0.0143,-0.0118,-0.0117,-0.0039,0.0006,0.0052,0.0095,0.0115,0,0,-0.0004,-0.0017,-0.0002,-0.0034,-0.0002,-0.006,-0.002,-0.0058,-0.0101,-0.0111,-0.0111,-0.0034,0.001,0.0055,0.0157,0.0175,0,0,0,0.0019,0.0032,0.0037,0.0044,0.0034,0.0044,-0.0002,-0.002,-0.0036,-0.01,-0.0036,-0.0011,0.0015,0.0033,0.0047,-0.0112,-0.0112,-0.0112,-0.0112,0.0101,0.0091,0.0129,0.0122,0.013,0.0113,0.0117,0.0083,0.0027,0.0029,0.0056,0.0148,0.0168,0.018,0.0045,0.0046,0.0046,0.0046,0.0047,0.0177,0.0202,0.0198,0.0226,0.0227,0.0249,0.0231,0.0196,0.0198,0.0132,0.0152,0.0119,0.0201,0.0053,0.0052,0.0051,0.005,0.005,0.0049,0.0236,0.0247,0.0254,0.0297,0.0339,0.0334,0.0406,0.0358,0.0288,0.031,0.0308,0.0307,0.0206,0.0314,0.0315,0.0315,0.0315,0.0316,0.0316,0.0287,0.0298,0.034,0.0373,0.0416,0.048,0.0503,0.0513,0.0476,0.0417,0.0417,0.0238,0.023,0.0221,0.0323,0.0322,0.0321,0.032,0.032,0.0354,0.035,0.0422,0.0465,0.0568,0.0676,0.0686,0.0712,0.0686,0.0673,0.047,0.0464,0.0441,0.0428,0.0424,0.0573,0.0573,0.0573,0.0573,0.04,0.0402,0.05,0.0588,0.0704,0.0775,0.0907,0.0882,0.0756,0.0655,0.0652,0.0598,0.0586,0.0567,0.055,0.0546,0.0727,0.0727,0.0727,0.0449,0.0472,0.0553,0.0627,0.076,0.089,0.1004,0.0983,0.0796,0.0731,0.0655,0.0587,0.0494,0.0482,0.0434,0.0415,0.04,0,0]}],[{"header":{"parameterUnit":"m.s-1","parameterCategory":2,"la1":30.2992,"la2":30.254,"lo1":-89.0895,"lo2":-89.0443,"dy":0.0025,"dx":0.0025,"nx":19,"ny":19,"refTime":"2026-03-08T03:00:00:Z","depth":"4","parameterNumber":2,"parameterNumberName":"U-component_of_CURRENTS"},"data":[0,0,0,0.1293,0.1295,0.1439,0.144,0.1575,0.1576,0,0,0,0,0,0,0,0,0,0,0,0.1248,0.1249,0.1292,0.1296,0.1439,0.144,0.1574,0.1576,0,0,0,0,0,0,0,0,0,0,0,0.1247,0.1249,0.125,0.1296,0.1439,0.144,0.1574,0.1479,0,0,0,0,0,0,0,0,0,0,0.1346,0.1316,0.1248,0.125,0.1297,0.1439,0.144,0.1475,0.1485,0.1495,0,0.1524,0,0.1549,0.1583,0.1584,0,0,0,0.1299,0.1308,0.134,0.125,0.1298,0.1439,0.1375,0.1481,0.1492,0.1507,0.1526,0.1532,0.1551,0.1584,0.1585,0.1692,0.1692,0,0,0.1291,0.128,0.1332,0.1347,0.1345,0.1371,0.138,0.1488,0.1506,0.1527,0.1535,0.1554,0.1585,0.1586,0.1692,0.1692,0,0,0,0.1266,0.1274,0.1305,0.1341,0.137,0.1375,0.1385,0.1502,0.1511,0.1537,0.1555,0.1585,0.1587,0.1691,0.1692,0.1714,0,0,0,0.1262,0.1259,0.1301,0.1296,0.1368,0.1446,0.1397,0.1503,0.1516,0.1555,0.1585,0.1588,0.1691,0.1692,0.1712,0.1722,0,0,0,0.124,0.1257,0.1275,0.1295,0.1355,0.1445,0.1461,0.1507,0.1527,0.1584,0.1588,0.1691,0.1692,0.1711,0.172,0.178,0,0,0,0.122,0.1248,0.1275,0.1313,0.1353,0.1423,0.146,0.1528,0.1577,0.1586,0.1691,0.1692,0.1711,0.1718,0.1778,0.1565,0,0,0,0.1235,0.125,0.1269,0.1296,0.1346,0.1403,0.1475,0.1556,0.159,0.1652,0.1655,0.1713,0.1719,0.178,0.1613,0,0,0,0,0.126,0.1274,0.1294,0.1337,0.139,0.1459,0.1535,0.1578,0.1664,0.1623,0.1723,0.1726,0.1764,0.1633,0.1696,0.1696,0.1696,0.1695,0.1695,0.1266,0.1286,0.1316,0.1355,0.1407,0.1506,0.1571,0.1645,0.1674,0.1719,0.1751,0.1821,0.1682,0.176,0.176,0.176,0.176,0.176,0.176,0.1268,0.1274,0.1321,0.1357,0.143,0.1504,0.1622,0.1673,0.1791,0.1782,0.1818,0.1672,0.1763,0.1762,0.1762,0.1761,0.1761,0.1761,0.1761,0.1251,0.1251,0.1289,0.1341,0.1421,0.1517,0.1616,0.1722,0.181,0.186,0.1758,0.1852,0.1845,0.1899,0.19,0.19,0.19,0.19,0.1901,0.1207,0.1237,0.126,0.1323,0.1366,0.1465,0.1633,0.1708,0.1821,0.1767,0.1888,0.1868,0.1864,0.1854,0.1905,0.1905,0.1904,0.1903,0.1903,0.1156,0.1186,0.1203,0.1238,0.1318,0.1366,0.1547,0.1641,0.172,0.1724,0.1723,0.1731,0.1712,0.1712,0.1696,0.1703,0.17,0.1698,0,0.1121,0.1134,0.1148,0.1166,0.1197,0.1297,0.1343,0.1458,0.1564,0.1506,0.1727,0.1722,0.1727,0.1701,0.1697,0.1674,0,0,0,0.1085,0.1095,0.1084,0.1106,0.1118,0.1204,0.1346,0.1341,0.1539,0.1548,0.1634,0.1651,0.1801,0.192,0.191,0.1905,0.1889,0,0]},{"header":{"parameterUnit":"m.s-1","parameterCategory":2,"la1":30.2992,"la2":30.254,"lo1":-89.0895,"lo2":-89.0443,"dy":0.0025,"dx":0.0025,"nx":19,"ny":19,"refTime":"2026-03-08T03:00:00:Z","depth":"4","parameterNumber":3,"parameterNumberName":"V-component_of_CURRENTS"},"data":[0,0,0,-0.0052,-0.0053,-0.0083,-0.0083,-0.01,-0.01,0,0,0,0,0,0,0,0,0,0,0,-0.004,-0.004,-0.0052,-0.0053,-0.0083,-0.0083,-0.01,-0.01,0,0,0,0,0,0,0,0,0,0,0,-0.004,-0.004,-0.004,-0.0053,-0.0083,-0.0083,-0.01,-0.0083,0,0,0,0,0,0,0,0,0,0,-0.0057,-0.0043,-0.004,-0.004,-0.0053,-0.0083,-0.0083,-0.0083,-0.0084,-0.008,0,-0.0082,0,-0.0091,-0.0101,-0.0101,0,0,0,-0.0056,-0.0041,-0.0054,-0.004,-0.0054,-0.0083,-0.007,-0.0084,-0.0086,-0.0082,-0.0082,-0.0083,-0.0091,-0.0101,-0.0101,-0.0066,-0.0066,0,0,-0.0054,-0.0041,-0.0053,-0.0055,-0.0058,-0.0069,-0.0071,-0.0085,-0.0082,-0.0082,-0.0084,-0.0091,-0.0101,-0.0101,-0.0067,-0.0066,0,0,0,-0.0047,-0.004,-0.0053,-0.0054,-0.0061,-0.007,-0.0072,-0.0081,-0.0087,-0.0084,-0.0092,-0.0101,-0.0101,-0.0067,-0.0066,-0.0001,0,0,0,-0.0047,-0.0036,-0.0052,-0.0044,-0.0061,-0.0073,-0.0068,-0.0086,-0.0088,-0.0091,-0.0101,-0.0101,-0.0068,-0.0067,-0.0004,0.0033,0,0,0,-0.0039,-0.0035,-0.0039,-0.0044,-0.0057,-0.0074,-0.008,-0.0087,-0.0092,-0.0101,-0.0101,-0.0068,-0.0067,-0.0007,0.0029,0.005,0,0,0,-0.0025,-0.001,-0.0038,-0.0018,-0.0056,-0.0039,-0.008,-0.0077,-0.008,-0.0101,-0.0067,-0.0066,-0.0007,0.0026,0.0047,0.0064,0,0,0,0.0005,-0.0006,0.0008,-0.0018,0.0014,-0.0036,0.0001,-0.0029,-0.0063,-0.0063,-0.0063,-0.0003,0.0028,0.0049,0.0123,0,0,0,0,0.0026,0.0037,0.0042,0.0051,0.0046,0.0054,0.002,0.0005,-0.0006,-0.006,-0.0001,0.0017,0.0028,0.003,-0.0062,-0.0062,-0.0062,-0.0062,-0.0062,0.0089,0.0085,0.012,0.0118,0.0128,0.0115,0.0116,0.0089,0.005,0.0052,0.0071,0.0136,0.0142,0.0067,0.0068,0.0068,0.0068,0.0068,0.0068,0.0148,0.0169,0.0174,0.0202,0.0206,0.0228,0.021,0.018,0.0179,0.0134,0.0141,0.0101,0.0075,0.0074,0.0073,0.0072,0.0071,0.0071,0.0071,0.0189,0.02,0.0211,0.0254,0.0294,0.0293,0.0339,0.0303,0.0244,0.0256,0.0238,0.0179,0.0171,0.0253,0.0253,0.0254,0.0254,0.0254,0.0254,0.0221,0.0236,0.0273,0.0311,0.035,0.0398,0.041,0.0406,0.035,0.0323,0.0275,0.0198,0.0192,0.0181,0.0259,0.0258,0.0257,0.0257,0.0257,0.0265,0.0267,0.0327,0.0367,0.0454,0.0492,0.0505,0.0484,0.0477,0.0439,0.0347,0.0341,0.0317,0.0308,0.03,0.0416,0.0417,0.0417,0,0.0295,0.0299,0.0379,0.045,0.053,0.0551,0.0577,0.0561,0.0478,0.047,0.0455,0.0352,0.0347,0.0319,0.0311,0.0303,0,0,0,0.0329,0.0347,0.0409,0.0471,0.0559,0.058,0.0586,0.057,0.0494,0.0486,0.043,0.0427,0.0348,0.0271,0.022,0.0212,0.0192,0,0]}]]